NOAA 16 DEB, 41661

Orbit data source: Space-Track

NOAA 16 DEB, 41661 is space debris in SSO originally from a launch on Thu, 21 Sep 2000 UTC launched from the Air Force Western Test Range (AFWTR). Debris objects in space refer to the collection of defunct objects orbiting the Earth. Examples of debris include non-operational satellites, rocket bodies, and fragments generated from explosions, collisions, or faulty payload assembly.

Loading next visibility...
Identifier
41661, 2000-055PA
Orbit
SSO
Country
Flag of USUS
Related business
Manufacturer
Unknown
Mission
Spacecraft
Bus & Motor
Unknown
Mass
Unknown
Launch date (UTC)
Icon of a cake. It is the launch day of the satellite!2000-09-21 (26 years ago)
Launch vehicle
Unknown
Launch site
Air Force Western Test Range (AFWTR)
Object type
Payload
Rocket body
Debris
Shape & HBR
Unknown shape, 0.1 m
Radar Cross Section
Medium (>0.1 m² and <1 m²)

Expand to show TLE details & history
Last TLE update: 1 day ago

TLE from 1 day ago
0 NOAA 16 DEB
1 41661U 00055PA  26263.37014121  .00002713  00000-0  78197-3 0  9994
2 41661  99.0273 110.2266 0019902 323.8795  36.1049 14.45476957541472
Epoch: 2026-09-20T08:53Z
TLE epoch observation values (Epoch: 2026-09-20T08:53:00.200Z)
Latitude
-0.00003°
Longitude
-22.28953°
Altitude
731.96 km
Speed
7.495 km/s
True Right ascension
07h 20m 54s
True Declination
0° 00' 00"
Sunlit
Object was in daylight at epoch
Visualization orbit readout
Latitude
Unknown
Longitude
Unknown
Altitude
Unknown
Speed
Unknown
Apparent Right ascension
Unknown
Apparent Declination
Unknown
Sunlit
N/A
Visualization observer readout
Local Sidereal Time
06:57:25
Azimuth
Unknown
Elevation
Unknown
Doppler factor
Unknown
Orbital elements
Apogee altitude
751.762 km
Perigee altitude
723.438 km
Semi-major axis
7,115.737 km
Eccentricity
0.00199
Inclination
99.0273°
RAAN
110.2266°
Arg. of periapsis
323.8795°
True anomaly
36.23956°
Mean anomaly
36.1049°
Eccentric anomaly
36.1722°
Mean motion
3.61587 °/min
Orbital period
99.56 mins
BSTAR
0.00078197
Loading maneuver chart data...
Computing Atmospheric mass density...

Documentation

Showing up to 5 results
|